Weather History for Brier Island, NS

Change the Weather History Date:

Wednesday, December 18, 2013

  Actual Average Record
Temperature  
Mean Temperature 28 °F -  
Max Temperature 33 °F - - ()
Min Temperature 22 °F - - ()
Degree Days  
Heating Degree Days 38    
Moisture  
Dew Point 26 °F    
Average Humidity 95    
Maximum Humidity 100    
Minimum Humidity 80    
Precipitation  
Precipitation 0.16 in - - ()
Sea Level Pressure  
Sea Level Pressure 29.84 in    
Wind  
Wind Speed 25 mph ()    
Max Wind Speed 39 mph    
Max Gust Speed 48 mph    
T = Trace of Precipitation, MM = Missing Value Source: Averaged Metar Reports

Daily Weather History Graph

Daily Weather History Graph

Search for Another Location

Airport:

Trip Planner

Search our weather history database for the weather conditions in past years. The results will help you decide how hot, cold, wet, or windy it might be!

Date:

Astronomy

Dec. 18, 2013 Rise Set
Actual Time 7:56 AM AST 4:47 PM AST
Civil Twilight 7:23 AM AST 5:21 PM AST
Nautical Twilight 6:46 AM AST 5:58 PM AST
Astronomical Twilight 6:10 AM AST 6:33 PM AST
Moon 6:19 PM AST (12/18) 8:30 AM AST (12/18)
Length of Visible Light 9h 58m
Length of Day
8h 51m
Full, 99% of the Moon is Illuminated
Dec 18
Full
Dec 25
Last Quarter
Jan 1
New
Jan 7
First Quarter
Jan 16
Full

Hourly Weather History & Observations

Time (AST) Temp. Windchill Dew Point Humidity Pressure Visibility Wind Dir Wind Speed Gust Speed Precip Events Conditions
12:00 AM 24.3 °F 8.3 °F 23.5 °F 97% 30.17 in - East 25.3 mph 31.1 mph 0.01 in   Unknown
1:00 AM 25.9 °F 10.1 °F 25.3 °F 98% 30.12 in - East 26.5 mph - N/A   Unknown
2:00 AM 27 °F - 26 °F 97% 30.06 in - ENE 23.0 mph - -  
2:00 AM 26.6 °F 12.0 °F 26.4 °F 99% 30.06 in - ENE 23.0 mph 29.9 mph 0.03 in   Unknown
3:00 AM 27.5 °F 12.6 °F 25.5 °F 92% 30.02 in - ENE 25.3 mph - 0.04 in   Unknown
4:00 AM 24.8 °F 8.1 °F 24.4 °F 99% 29.99 in - ENE 28.8 mph 34.5 mph 0.05 in   Unknown
5:00 AM 27.5 °F 12.6 °F 25.5 °F 92% 29.95 in - NE 25.3 mph - 0.04 in   Unknown
6:00 AM 26.4 °F 11.8 °F 26.1 °F 99% 29.91 in - NNE 23.0 mph 31.1 mph 0.01 in   Unknown
7:00 AM 26.2 °F 11.5 °F 26.1 °F 99% 29.85 in - NE 23.0 mph 28.8 mph 0.01 in   Unknown
8:00 AM 27 °F - 27 °F 100% 29.83 in - North 23.0 mph - -  
8:00 AM 27.1 °F 12.7 °F 27.0 °F 99% 29.83 in - North 23.0 mph - 0.01 in   Unknown
9:00 AM 28.2 °F 14.2 °F 27.9 °F 99% 29.78 in - NNE 23.0 mph - N/A   Unknown
10:00 AM 30.9 °F 16.7 °F 29.7 °F 95% 29.74 in - NNE 27.6 mph 33.4 mph N/A   Unknown
11:00 AM 32.9 °F 18.9 °F 31.6 °F 95% 29.69 in - NNE 29.9 mph 39.1 mph N/A   Unknown
12:00 PM 31.8 °F 16.5 °F 31.5 °F 99% 29.64 in - North 34.5 mph 41.4 mph 0.01 in   Unknown
1:00 PM 30.7 °F 14.2 °F 30.7 °F 100% 29.62 in - NNW 39.1 mph 47.2 mph N/A   Unknown
2:00 PM 29 °F - 29 °F 100% 29.64 in - NNW 35.7 mph - -  
2:00 PM 31.1 °F 15.3 °F 31.1 °F 100% 29.64 in - NNW 35.7 mph 43.7 mph N/A   Unknown
3:00 PM 28.2 °F 10.9 °F 28.2 °F 100% 29.66 in - NNW 38.0 mph 48.3 mph 0.01 in   Unknown
4:00 PM 28.4 °F 11.4 °F 28.4 °F 100% 29.67 in - NNW 36.8 mph 43.7 mph N/A   Unknown
5:00 PM 29.3 °F 12.8 °F 27.1 °F 92% 29.72 in - NW 35.7 mph 41.4 mph N/A   Unknown
6:00 PM 29.3 °F 13.3 °F 26.2 °F 88% 29.76 in - NW 33.4 mph 41.4 mph N/A   Unknown
7:00 PM 27.3 °F 11.0 °F 25.2 °F 92% 29.79 in - NW 31.1 mph 36.8 mph N/A   Unknown
8:00 PM 26 °F - 24 °F 86% 29.84 in - WNW 32.2 mph - -  
8:00 PM 26.1 °F 9.1 °F 23.5 °F 90% 29.84 in - WNW 32.2 mph 39.1 mph N/A   Unknown
9:00 PM 25.9 °F 8.3 °F 21.9 °F 85% 29.87 in - WNW 34.5 mph 40.3 mph N/A   Unknown
10:00 PM 25.5 °F 8.3 °F 20.1 °F 80% 29.90 in - WNW 32.2 mph - N/A   Unknown
11:00 PM 25.9 °F 8.8 °F 20.5 °F 80% 29.93 in - WNW 32.2 mph - N/A   Unknown